Regional Weather Roundup
Issued by NWS

Home | Current Version | Previous Version | Graphics & Text | Print | Product List | Glossary On
Versions: 1 2 3 4 5 6 7 8 9 10 11 12 13 14 15 16 17 18 19 20 21 22 23 24 25 26 27 28 29 30 31 32 33 34 35 36 37 38 39 40 41 42 43 44 45 46 47 48 49 50
000
ASUS45 KPSR 042200
RWRAZ

ARIZONA HOURLY REGIONAL WEATHER ROUNDUP
NATIONAL WEATHER SERVICE PHOENIX AZ
300 PM MST TUE AUG 04 2015

NOTE: FAIR INDICATES FEW OR NO CLOUDS BELOW 12,000 FEET WITH NO
SIGNIFICANT WEATHER AND/OR OBSTRUCTIONS TO VISIBILITY.

AZZ001>003-036-042300-
NORTHWEST ARIZONA

CITY           SKY/WX    TMP DP  RH WIND       PRES   REMARKS
KINGMAN        SUNNY     99  31   9 SW21G26   30.02F
$$

AZZ004>008-015-016-018-042300-
NORTH CENTRAL ARIZONA

CITY           SKY/WX    TMP DP  RH WIND       PRES   REMARKS
GRAND CANYON   SUNNY     86  28  12 MISG      30.26F
WILLIAMS       SUNNY     86  28  12 W16       30.33F
PRESCOTT       SUNNY     91  29  11 SW10      30.16S
FLAGSTAFF      NOT AVBL
PAYSON         MOSUNNY   91  41  17 W10G18    30.17F
PAGE           SUNNY     98  38  12 N13G21    30.03F
$$

AZZ009>014-017-042300-
NORTHEAST ARIZONA

CITY           SKY/WX    TMP DP  RH WIND       PRES   REMARKS
WINSLOW        NOT AVBL
SAINT JOHNS    MOSUNNY   90  41  18 W6        30.17F
$$

AZZ023-042300-
GREATER PHOENIX AREA

CITY           SKY/WX    TMP DP  RH WIND       PRES   REMARKS
PHOENIX        MOSUNNY  110  43  10 W13G20    29.81F HX 104
GLENDALE       MOSUNNY  109  39   9 SE9       29.83F HX 103
LUKE AFB       SUNNY    109  34   7 SW13G22   29.80F HX 102
DEER VALLEY    SUNNY    107  38   9 SW13      29.84F HX 101
SCOTTSDALE     SUNNY    107  33   8 SW6       29.86F HX 100
MESA-GATEWAY   SUNNY    106  50  15 SW10G17   29.86F HX 103
CHANDLER       MOSUNNY  108  48  13 SW7       29.83F HX 104
$$

AZZ027-028-042300-
SOUTHWEST MARICOPA COUNTY AND PINAL COUNTY

CITY           SKY/WX    TMP DP  RH WIND       PRES   REMARKS
CASA GRANDE    SUNNY    108  50  14 SW5       29.84F HX 104
GILA BEND      SUNNY    110  43  10 NW14      29.79F HX 105
$$

AZZ503-504-507>509-042300-
SOUTHEAST ARIZONA

CITY           SKY/WX    TMP DP  RH WIND       PRES   REMARKS
TUCSON         MOSUNNY  104  47  14 W13G20    29.95F HX 100
DAVIS-MONTHAN  SUNNY    103  48  15 NW10      29.94F HX 100
RYAN FIELD     SUNNY    106  50  15 NW5       29.94F HX 103
NOGALES        MOSUNNY  100  52  19 NW8       30.05F
SIERRA VISTA   MOSUNNY   93  47  20 NW8       30.13F
SAFFORD        PTSUNNY  104  42  12 W13G21    29.94F
$$

AZZ020-021-025-026-031-042300-
SOUTHWEST ARIZONA

CITY           SKY/WX    TMP DP  RH WIND       PRES   REMARKS
YUMA           NOT AVBL
$$

CAZ031-033-041-043-047-048-061-042300-
SOUTHERN CALIFORNIA

CITY           SKY/WX    TMP DP  RH WIND       PRES   REMARKS
DOWNTOWN L.A.  NOT AVBL
L.A. AIRPORT   MOSUNNY   78  58  49 W21       29.93F
SAN DIEGO      SUNNY     79  64  60 NW15G21   29.92S
BURBANK        SUNNY     89  55  31 S9G20     29.92S
ONTARIO        MOSUNNY   96  50  20 W13G20    29.91F
RIVERSIDE      SUNNY     97  47  18 W10       29.89F
PALM SPRINGS   SUNNY    110  34   7 VRB6      29.78F HX 103
EL CENTRO NAS  MOSUNNY  111  34   7 S7        29.75F HX 104
IMPERIAL       SUNNY    109  37   8 VRB7      29.73F HX 102
BLYTHE         MOSUNNY  111  51  13 S12G21    29.75F HX 108
$$

NVZ020-UTZ003-042300-
SOUTHERN NEVADA-UTAH

CITY           SKY/WX    TMP DP  RH WIND       PRES   REMARKS
LAS VEGAS      NOT AVBL
SALT LAKE CITY MOSUNNY   89  49  25 VRB3      30.02F
$$

NMZ009-TXZ055-042300-
NEW MEXICO-WEST TEXAS

CITY           SKY/WX    TMP DP  RH WIND       PRES   REMARKS
ALBUQUERQUE    MOSUNNY   92  46  20 N10       30.13F
EL PASO        MOSUNNY   96  46  18 SE3       30.01F
$$


........................KEY........................
SKY/WX - SKY CONDITION/WEATHER
TMP    - TEMPERATURE IN FAHRENHEIT
DP     - DEW POINT IN FAHRENHEIT
RH     - RELATIVE HUMIDITY IN PERCENT
WIND   - DIRECTION AND SPEED IN MILES PER HOUR (MPH)
VRB    - VARIABLE WIND DIRECTION
PRES   - MEAN SEA LEVEL PRESSURE IN INCHES OF MERCURY
         F - FALLING PRESSURE   R - RISING PRESSURE
         S - STEADY PRESSURE
VSB    - VISIBILITY IN MILES
HX     - HEAT INDEX IN FAHRENHEIT
WCI    - WIND CHILL INDEX IN FAHRENHEIT
TC     - TEMPERATURE IN CELSIUS WHICH IS ALSO KNOWN AS
         TEMPERATURE IN CENTIGRADE
AFB    - AIR FORCE BASE
         LUKE AFB IS LUKE AIR FORCE BASE
         DAVIS-MONTHAN IS DAVIS-MONTHAN AIR FORCE BASE
NAS    - NAVAL AIR STATION
         EL CENTRO NAS IS EL CENTRO NAVAL AIR STATION
N/A    - NOT AVAILABLE




USA.gov is the U.S. government's official web portal to all federal, state and local government web resources and services.